Regional Weather Roundup
Issued by NWS Glasgow, MT

Home | Current Version | Previous Version | Text Only | Print | Product List | Glossary On
Versions: 1 2 3 4 5 6 7 8 9 10 11 12 13 14 15 16 17 18 19 20 21 22 23 24 25 26 27 28
000
ASUS45 KGGW 081515
RWRGGW
HOURLY REGIONAL WEATHER ROUNDUP FOR NORTHEAST MONTANA
NATIONAL WEATHER SERVICE GLASGOW MONTANA
800 AM MST THU DEC 08 2016

NOTE: "FAIR" INDICATES FEW OR NO CLOUDS BELOW 12,000 FEET WITH NO
SIGNIFICANT WEATHER AND/OR OBSTRUCTIONS TO VISISBILITY.

NORTHEAST MONTANA


CITY           SKY/WX    TMP DP  RH WIND       PRES   REMARKS
GLASGOW        CLEAR     -8 -13  78 W6        30.65S
PLENTYWOOD       N/A     -8 -12  83 W10         N/A  WCI -26
WOLF POINT     CLEAR     -6 -11  79 W7        30.69R
JORDAN           N/A    -12 -17  78 W5        30.62F
WINNETT          N/A    -11 -14  86 SW1         N/A
SIDNEY         CLOUDY     0  -5  79 W8        30.68S
GLENDIVE       FLURRIES  -1  -6  79 NW7       30.64S
SCOBEY           N/A    -11 -22  58 CALM      30.55

FORT PECK REPORTS


CITY           SKY/WX    TMP DP  RH WIND       PRES   REMARKS
FORT PECK        N/A     -6  -9  86 W9          N/A
THE PINES        N/A     -6 -11  79 W1          N/A

SOUTHEAST MONTANA


CITY           SKY/WX    TMP DP  RH WIND       PRES   REMARKS
BILLINGS       PTCLDY    -1  -7  75 E8        30.50S
MILES CITY     CLEAR     -6 -13  71 CALM      30.64R
BAKER          CLOUDY    -5  -9  83 W13       30.58S WCI -24
LIVINGSTON     CLOUDY    -8 -13  78 SE8       30.35F

CENTRAL MONTANA


CITY           SKY/WX    TMP DP  RH WIND       PRES   REMARKS
HAVRE          CLOUDY   -12 -17  78 S3        30.63F
LEWISTOWN      CLOUDY    -4  -9  79 N3        30.42S
GREAT FALLS    CLOUDY    -3  -8  79 NE7       30.47F
CUT BANK       CLOUDY    -6 -11  79 CALM      30.47S
HELENA         CLOUDY     2  -5  72 NW5       30.41F
BUTTE          CLOUDY    -9 -14  78 CALM      30.22F
BOZEMAN        CLOUDY    -5 -10  79 S5        30.34F

WESTERN MONTANA


CITY           SKY/WX    TMP DP  RH WIND       PRES   REMARKS
MISSOULA       CLEAR      6  -2  69 E12       30.39S WCI  -9
KALISPELL      NOT AVBL

NORTH DAKOTA


CITY           SKY/WX    TMP DP  RH WIND       PRES   REMARKS
WILLISTON      CLEAR     -5 -11  75 W9        30.67R
DICKINSON      CLOUDY    -6 -11  79 NW18      30.56R HAZE    WCI -29
MINOT          CLEAR     -2  -8  76 W17       30.60R WCI -23
BISMARCK       CLOUDY     1  -5  75 W12       30.63R WCI -16

SOUTHERN SASKATCHEWAN


CITY           SKY/WX    TMP DP  RH WIND       PRES   REMARKS
REGINA         FLURRIES  -2  -8  78 NW16      30.62S WCI -23
MOOSE JAW      PTCLDY    -4 -11  71 W10       30.66R WCI -21
ESTEVAN        CRYSTALS -11 -15  84 W14       30.61R WCI -33
SWIFT CURRENT  CLOUDY   -11 -15  84 W10       30.57S WCI -30





USA.gov is the U.S. government's official web portal to all federal, state and local government web resources and services.